VLG05YT LFPO-LEBL

Flight info

Callsign VLG05YT
Flight time 1h 19m
Altitude 37000
Route ERIXU DCT ETAMO DCT VALKU DCT ATSUP DCT MINSO DCT DEGOL DCT PPG DCT ALBER
Aircraft A320/M-SDE3FGHIRWY/LB1

Departure

Time 2026-05-06 10:46
Airport Paris-Orly Airport (LFPO)

Arrival

Time 2026-05-06 12:05
Airport Josep Tarradellas Barcelona-El Prat Airport (LEBL)
Time Latitude Longitude Altitude Speed Heading
2026-05-06 10:15 48.72835 2.35757 296 ft 0 kts 121°
2026-05-06 10:40 48.72831 2.35765 295 ft 2 kts 123°
2026-05-06 10:40 48.72823 2.35765 294 ft 2 kts 187°
2026-05-06 10:41 48.72802 2.35741 297 ft 5 kts 223°
2026-05-06 10:41 48.72779 2.35688 298 ft 7 kts 254°
2026-05-06 10:41 48.72765 2.35608 295 ft 9 kts 255°
2026-05-06 10:41 48.72739 2.35507 298 ft 12 kts 224°
2026-05-06 10:42 48.72655 2.35509 298 ft 14 kts 160°
2026-05-06 10:42 48.72558 2.35554 295 ft 15 kts 164°
2026-05-06 10:42 48.72449 2.35603 293 ft 17 kts 163°
2026-05-06 10:42 48.72329 2.35638 293 ft 17 kts 202°
2026-05-06 10:43 48.72209 2.35605 293 ft 18 kts 167°
2026-05-06 10:43 48.72095 2.35660 296 ft 2 kts 153°
2026-05-06 10:43 48.72074 2.35678 296 ft 5 kts 144°
2026-05-06 10:44 48.72016 2.35788 298 ft 9 kts 123°
2026-05-06 10:44 48.71978 2.35875 294 ft 10 kts 123°
2026-05-06 10:44 48.71961 2.35976 293 ft 11 kts 77°
2026-05-06 10:44 48.71963 2.35986 293 ft 0 kts 74°
2026-05-06 10:45 48.72013 2.36254 297 ft 62 kts 73°
2026-05-06 10:45 48.72188 2.37195 297 ft 121 kts 74°
2026-05-06 10:45 48.72462 2.38638 312 ft 163 kts 71°
2026-05-06 10:45 48.72772 2.40320 793 ft 166 kts 72°
2026-05-06 10:46 48.73073 2.41975 1469 ft 166 kts 70°
2026-05-06 10:46 48.73279 2.43091 1808 ft 175 kts 70°
2026-05-06 10:46 48.73625 2.44935 2097 ft 197 kts 70°
2026-05-06 10:46 48.74107 2.47873 2569 ft 233 kts 77°
2026-05-06 10:47 48.74234 2.49576 2893 ft 249 kts 81°
2026-05-06 10:47 48.74335 2.52254 3687 ft 257 kts 83°
2026-05-06 10:47 48.74393 2.54985 4581 ft 263 kts 86°
2026-05-06 10:47 48.73984 2.57730 5399 ft 278 kts 116°
2026-05-06 10:48 48.72598 2.59836 6220 ft 292 kts 149°
2026-05-06 10:48 48.70739 2.60976 7123 ft 292 kts 164°
2026-05-06 10:48 48.68765 2.61650 8092 ft 290 kts 170°
2026-05-06 10:48 48.66762 2.61936 8962 ft 289 kts 187°
2026-05-06 10:49 48.64817 2.61277 9889 ft 286 kts 201°
2026-05-06 10:49 48.63035 2.59967 10674 ft 287 kts 215°
2026-05-06 10:49 48.61499 2.57977 11118 ft 301 kts 230°
2026-05-06 10:49 48.60088 2.55487 11388 ft 319 kts 232°
2026-05-06 10:50 48.58728 2.53008 11863 ft 328 kts 232°
2026-05-06 10:50 48.57267 2.50330 12500 ft 334 kts 231°
2026-05-06 10:50 48.55779 2.47610 13188 ft 337 kts 231°
2026-05-06 10:50 48.54266 2.44861 13851 ft 341 kts 231°
2026-05-06 10:51 48.52670 2.42204 14443 ft 346 kts 224°
2026-05-06 10:51 48.50732 2.40000 15006 ft 351 kts 212°
2026-05-06 10:51 48.48653 2.38169 15585 ft 353 kts 211°
2026-05-06 10:51 48.46522 2.36296 16190 ft 356 kts 211°
2026-05-06 10:52 48.44375 2.34401 16790 ft 359 kts 211°
2026-05-06 10:52 48.42212 2.32488 17385 ft 362 kts 211°
2026-05-06 10:52 48.40031 2.30566 17999 ft 364 kts 210°
2026-05-06 10:52 48.37838 2.28642 18618 ft 366 kts 210°
2026-05-06 10:53 48.35626 2.26704 19176 ft 369 kts 210°
2026-05-06 10:53 48.33405 2.24752 19733 ft 372 kts 210°
2026-05-06 10:53 48.31073 2.23060 20292 ft 373 kts 200°
2026-05-06 10:53 48.28564 2.22069 20854 ft 374 kts 189°
2026-05-06 10:54 48.25955 2.21822 21345 ft 378 kts 178°
2026-05-06 10:54 48.23343 2.22312 21849 ft 380 kts 171°
2026-05-06 10:54 48.20718 2.22969 22289 ft 384 kts 171°
2026-05-06 10:54 48.18068 2.23624 22764 ft 387 kts 171°
2026-05-06 10:55 48.15403 2.24276 23320 ft 389 kts 171°
2026-05-06 10:55 48.12721 2.24925 23797 ft 391 kts 172°
2026-05-06 10:55 48.10028 2.25574 24277 ft 393 kts 172°
2026-05-06 10:55 48.07337 2.26061 24676 ft 395 kts 177°
2026-05-06 10:56 48.04595 2.26240 25079 ft 397 kts 178°
2026-05-06 10:56 48.01817 2.26409 25441 ft 401 kts 178°
2026-05-06 10:56 47.99026 2.26576 25883 ft 402 kts 178°
2026-05-06 10:56 47.96211 2.26746 26252 ft 406 kts 177°
2026-05-06 10:57 47.93388 2.26922 26688 ft 407 kts 177°
2026-05-06 10:57 47.90547 2.27102 27032 ft 410 kts 177°
2026-05-06 10:57 47.87687 2.27283 27381 ft 413 kts 177°
2026-05-06 10:57 47.84815 2.27466 27732 ft 415 kts 177°
2026-05-06 10:58 47.81928 2.27651 28119 ft 416 kts 176°
2026-05-06 10:58 47.79029 2.27838 28488 ft 417 kts 176°
2026-05-06 10:58 47.76120 2.28026 28873 ft 419 kts 177°
2026-05-06 10:58 47.73202 2.28212 29224 ft 422 kts 177°
2026-05-06 10:59 47.70258 2.28395 29565 ft 424 kts 177°
2026-05-06 10:59 47.67301 2.28576 29945 ft 426 kts 177°
2026-05-06 10:59 47.64339 2.28762 30258 ft 427 kts 177°
2026-05-06 10:59 47.61371 2.28953 30657 ft 426 kts 176°
2026-05-06 11:00 47.58404 2.29147 31036 ft 427 kts 177°
2026-05-06 11:00 47.55432 2.29337 31408 ft 427 kts 177°
2026-05-06 11:00 47.52462 2.29523 31786 ft 427 kts 177°
2026-05-06 11:00 47.49496 2.29706 32178 ft 427 kts 177°
2026-05-06 11:01 47.46529 2.29887 32601 ft 427 kts 177°
2026-05-06 11:01 47.43540 2.30072 32971 ft 428 kts 177°
2026-05-06 11:01 47.40582 2.30258 33343 ft 430 kts 177°
2026-05-06 11:01 47.37568 2.30449 33721 ft 431 kts 177°
2026-05-06 11:02 47.34587 2.30637 34054 ft 431 kts 178°
2026-05-06 11:02 47.31593 2.30826 34420 ft 430 kts 178°
2026-05-06 11:02 47.28638 2.31009 34703 ft 430 kts 178°
2026-05-06 11:02 47.25625 2.31193 34973 ft 431 kts 178°
2026-05-06 11:03 47.22626 2.31378 35265 ft 430 kts 178°
2026-05-06 11:03 47.19628 2.31565 35559 ft 430 kts 178°
2026-05-06 11:03 47.16646 2.31749 35845 ft 429 kts 178°
2026-05-06 11:03 47.13694 2.31930 36106 ft 430 kts 178°
2026-05-06 11:04 47.10707 2.32115 36365 ft 430 kts 178°
2026-05-06 11:04 47.07690 2.32302 36618 ft 430 kts 178°
2026-05-06 11:04 47.04706 2.32485 36842 ft 430 kts 179°
2026-05-06 11:05 46.98697 2.32846 36909 ft 435 kts 179°
2026-05-06 11:05 46.92633 2.33217 36905 ft 435 kts 179°
2026-05-06 11:06 46.86601 2.33606 36902 ft 434 kts 176°
2026-05-06 11:06 46.80728 2.35650 36899 ft 438 kts 159°
2026-05-06 11:07 46.75062 2.38958 36895 ft 439 kts 160°
2026-05-06 11:07 46.69398 2.42228 36900 ft 439 kts 160°
2026-05-06 11:08 46.63690 2.45501 36911 ft 440 kts 160°
2026-05-06 11:08 46.58008 2.48762 36905 ft 438 kts 160°
2026-05-06 11:09 46.52380 2.51989 36895 ft 437 kts 160°
2026-05-06 11:09 46.46706 2.55237 36893 ft 437 kts 160°
2026-05-06 11:10 46.41040 2.58476 36893 ft 438 kts 160°
2026-05-06 11:10 46.35373 2.61714 36899 ft 438 kts 161°
2026-05-06 11:11 46.29728 2.64923 36902 ft 438 kts 160°
2026-05-06 11:11 46.24046 2.68152 36900 ft 438 kts 161°
2026-05-06 11:12 46.18371 2.71360 36904 ft 438 kts 160°
2026-05-06 11:12 46.12695 2.74561 36900 ft 438 kts 160°
2026-05-06 11:13 46.07005 2.77767 36889 ft 439 kts 161°
2026-05-06 11:13 46.01319 2.80961 36902 ft 439 kts 161°
2026-05-06 11:14 45.95611 2.84092 36918 ft 438 kts 162°
2026-05-06 11:14 45.89883 2.87097 36915 ft 438 kts 162°
2026-05-06 11:15 45.84193 2.90057 36921 ft 438 kts 162°
2026-05-06 11:15 45.78462 2.93055 36924 ft 438 kts 162°
2026-05-06 11:16 45.72570 2.95114 36920 ft 433 kts 179°
2026-05-06 11:16 45.66557 2.95068 36918 ft 431 kts 183°
2026-05-06 11:17 45.60573 2.94900 36917 ft 431 kts 183°
2026-05-06 11:17 45.54565 2.94749 36920 ft 431 kts 183°
2026-05-06 11:18 45.48555 2.94593 36922 ft 431 kts 183°
2026-05-06 11:18 45.42573 2.94431 36929 ft 431 kts 183°
2026-05-06 11:19 45.36591 2.94274 36929 ft 431 kts 183°
2026-05-06 11:19 45.30610 2.94115 36929 ft 431 kts 184°
2026-05-06 11:20 45.24605 2.93954 36947 ft 431 kts 184°
2026-05-06 11:20 45.18636 2.93792 36951 ft 430 kts 184°
2026-05-06 11:21 45.12645 2.93640 36932 ft 430 kts 184°
2026-05-06 11:21 45.06671 2.93492 36942 ft 430 kts 184°
2026-05-06 11:22 45.00688 2.93335 36946 ft 429 kts 184°
2026-05-06 11:22 44.94720 2.93173 36941 ft 429 kts 184°
2026-05-06 11:23 44.88756 2.93011 36955 ft 429 kts 184°
2026-05-06 11:23 44.82773 2.92836 36955 ft 429 kts 185°
2026-05-06 11:24 44.76820 2.92441 36960 ft 428 kts 186°
2026-05-06 11:24 44.70880 2.91935 36963 ft 428 kts 186°
2026-05-06 11:25 44.64904 2.91449 36969 ft 428 kts 186°
2026-05-06 11:25 44.58986 2.91012 36968 ft 428 kts 186°
2026-05-06 11:26 44.53026 2.90591 36962 ft 428 kts 186°
2026-05-06 11:26 44.47097 2.90171 36968 ft 427 kts 186°
2026-05-06 11:27 44.41165 2.89745 36975 ft 427 kts 186°
2026-05-06 11:27 44.35206 2.89310 36972 ft 427 kts 186°
2026-05-06 11:28 44.29302 2.88880 36981 ft 427 kts 186°
2026-05-06 11:28 44.23378 2.88451 36985 ft 427 kts 186°
2026-05-06 11:29 44.17451 2.88037 36971 ft 426 kts 186°
2026-05-06 11:29 44.11514 2.87611 36977 ft 425 kts 186°
2026-05-06 11:30 44.05588 2.87178 36987 ft 425 kts 186°
2026-05-06 11:30 43.99697 2.86758 36988 ft 425 kts 186°
2026-05-06 11:31 43.93793 2.86340 36973 ft 424 kts 187°
2026-05-06 11:31 43.87901 2.85927 36980 ft 424 kts 187°
2026-05-06 11:32 43.82040 2.85513 36970 ft 423 kts 187°
2026-05-06 11:32 43.76171 2.85140 36973 ft 424 kts 185°
2026-05-06 11:33 43.70264 2.85175 36978 ft 425 kts 183°
2026-05-06 11:33 43.65307 2.85354 36983 ft 425 kts 183°
2026-05-06 11:34 43.59401 2.85523 36957 ft 424 kts 184°
2026-05-06 11:34 43.53523 2.85608 36966 ft 424 kts 184°
2026-05-06 11:35 43.47633 2.85669 36972 ft 423 kts 184°
2026-05-06 11:35 43.41744 2.85747 36969 ft 423 kts 184°
2026-05-06 11:36 43.35837 2.85830 36743 ft 427 kts 185°
2026-05-06 11:36 43.32870 2.85870 36466 ft 425 kts 184°
2026-05-06 11:36 43.29903 2.85911 35823 ft 427 kts 185°
2026-05-06 11:36 43.26977 2.85957 35397 ft 423 kts 185°
2026-05-06 11:37 43.24049 2.86006 34962 ft 419 kts 185°
2026-05-06 11:37 43.21145 2.86054 34508 ft 416 kts 185°
2026-05-06 11:37 43.18254 2.86098 34040 ft 413 kts 186°
2026-05-06 11:37 43.15397 2.86141 33555 ft 409 kts 186°
2026-05-06 11:38 43.12555 2.86184 33108 ft 405 kts 186°
2026-05-06 11:38 43.09756 2.86224 32658 ft 400 kts 186°
2026-05-06 11:38 43.06991 2.86261 32221 ft 396 kts 186°
2026-05-06 11:38 43.04253 2.86297 31789 ft 392 kts 186°
2026-05-06 11:39 43.01540 2.86336 31349 ft 387 kts 186°
2026-05-06 11:39 42.98860 2.86379 30932 ft 383 kts 187°
2026-05-06 11:39 42.96205 2.86424 30509 ft 379 kts 187°
2026-05-06 11:39 42.93582 2.86466 30116 ft 375 kts 187°
2026-05-06 11:40 42.90987 2.86501 29666 ft 371 kts 187°
2026-05-06 11:40 42.88425 2.86533 29269 ft 365 kts 187°
2026-05-06 11:40 42.85906 2.86566 28885 ft 360 kts 187°
2026-05-06 11:40 42.83420 2.86602 28511 ft 355 kts 187°
2026-05-06 11:41 42.80964 2.86638 28159 ft 351 kts 187°
2026-05-06 11:41 42.78545 2.86676 27800 ft 347 kts 187°
2026-05-06 11:41 42.76143 2.86713 27414 ft 344 kts 187°
2026-05-06 11:41 42.73781 2.86584 27037 ft 336 kts 192°
2026-05-06 11:42 42.71493 2.86306 26671 ft 332 kts 192°
2026-05-06 11:42 42.69178 2.86031 26298 ft 329 kts 192°
2026-05-06 11:42 42.66898 2.85768 25929 ft 327 kts 192°
2026-05-06 11:42 42.64644 2.85507 25551 ft 324 kts 192°
2026-05-06 11:43 42.62430 2.85249 25179 ft 321 kts 192°
2026-05-06 11:43 42.60215 2.84989 24806 ft 319 kts 192°
2026-05-06 11:43 42.58008 2.84728 24421 ft 318 kts 192°
2026-05-06 11:44 42.53705 2.84222 23665 ft 315 kts 192°
2026-05-06 11:44 42.51524 2.83963 23234 ft 314 kts 192°
2026-05-06 11:44 42.49358 2.83709 22838 ft 311 kts 192°
2026-05-06 11:44 42.47204 2.83456 22437 ft 309 kts 192°
2026-05-06 11:45 42.45064 2.83186 22043 ft 306 kts 195°
2026-05-06 11:45 42.42986 2.82685 21659 ft 303 kts 196°
2026-05-06 11:45 42.40916 2.82173 21272 ft 302 kts 196°
2026-05-06 11:45 42.38883 2.81668 20893 ft 301 kts 196°
2026-05-06 11:46 42.36823 2.81158 20484 ft 300 kts 196°
2026-05-06 11:46 42.34779 2.80655 20122 ft 299 kts 195°
2026-05-06 11:46 42.32733 2.80152 19738 ft 299 kts 195°
2026-05-06 11:46 42.30684 2.79645 19346 ft 300 kts 195°
2026-05-06 11:47 42.28625 2.79134 18958 ft 301 kts 195°
2026-05-06 11:47 42.26559 2.78625 18569 ft 303 kts 194°
2026-05-06 11:47 42.24479 2.78118 18168 ft 304 kts 194°
2026-05-06 11:47 42.22396 2.77613 17740 ft 305 kts 194°
2026-05-06 11:48 42.20309 2.77105 17345 ft 304 kts 194°
2026-05-06 11:48 42.18228 2.76599 16956 ft 304 kts 194°
2026-05-06 11:48 42.16145 2.76093 16563 ft 304 kts 194°
2026-05-06 11:48 42.14066 2.75589 16178 ft 303 kts 194°
2026-05-06 11:49 42.11992 2.75084 15791 ft 303 kts 194°
2026-05-06 11:49 42.09917 2.74576 15408 ft 303 kts 194°
2026-05-06 11:49 42.07843 2.74067 15022 ft 303 kts 194°
2026-05-06 11:49 42.05761 2.73557 14636 ft 304 kts 193°
2026-05-06 11:50 42.03678 2.73048 14255 ft 305 kts 194°
2026-05-06 11:50 42.01589 2.72541 13875 ft 305 kts 193°
2026-05-06 11:50 41.99527 2.72042 13468 ft 305 kts 193°
2026-05-06 11:50 41.97443 2.71537 13083 ft 304 kts 193°
2026-05-06 11:51 41.95369 2.71033 12694 ft 302 kts 194°
2026-05-06 11:51 41.93311 2.70536 12327 ft 300 kts 193°
2026-05-06 11:51 41.91283 2.70044 11959 ft 299 kts 194°
2026-05-06 11:51 41.89238 2.69547 11585 ft 298 kts 194°
2026-05-06 11:52 41.87204 2.69051 11216 ft 297 kts 194°
2026-05-06 11:52 41.85193 2.68560 10847 ft 297 kts 194°
2026-05-06 11:52 41.83157 2.68064 10478 ft 297 kts 194°
2026-05-06 11:52 41.81124 2.67572 10096 ft 298 kts 194°
2026-05-06 11:53 41.79091 2.67085 9831 ft 294 kts 194°
2026-05-06 11:53 41.77102 2.66611 9609 ft 288 kts 194°
2026-05-06 11:53 41.75140 2.66144 9317 ft 285 kts 194°
2026-05-06 11:53 41.73196 2.65680 9079 ft 283 kts 194°
2026-05-06 11:54 41.71266 2.65219 8838 ft 281 kts 193°
2026-05-06 11:54 41.69343 2.64757 8599 ft 280 kts 193°
2026-05-06 11:54 41.67424 2.64297 8369 ft 280 kts 194°
2026-05-06 11:54 41.65512 2.63818 8134 ft 277 kts 197°
2026-05-06 11:55 41.63751 2.62886 7902 ft 271 kts 213°
2026-05-06 11:55 41.62254 2.61394 7556 ft 268 kts 225°
2026-05-06 11:55 41.60877 2.59722 7218 ft 267 kts 224°
2026-05-06 11:55 41.59516 2.58078 6904 ft 267 kts 224°
2026-05-06 11:56 41.58137 2.56418 6577 ft 266 kts 224°
2026-05-06 11:56 41.56766 2.54772 6270 ft 264 kts 224°
2026-05-06 11:56 41.55402 2.53141 5958 ft 262 kts 224°
2026-05-06 11:56 41.54043 2.51518 5638 ft 263 kts 223°
2026-05-06 11:57 41.52677 2.49887 5333 ft 264 kts 223°
2026-05-06 11:57 41.51311 2.48256 5045 ft 263 kts 223°
2026-05-06 11:57 41.49948 2.46629 4668 ft 263 kts 223°
2026-05-06 11:57 41.48587 2.44999 4345 ft 262 kts 223°
2026-05-06 11:58 41.47233 2.43376 4012 ft 261 kts 223°
2026-05-06 11:58 41.45902 2.41784 3869 ft 253 kts 223°
2026-05-06 11:58 41.44617 2.40253 3775 ft 243 kts 223°
2026-05-06 11:58 41.43381 2.38783 3668 ft 233 kts 223°
2026-05-06 11:59 41.42249 2.37437 3586 ft 223 kts 223°
2026-05-06 11:59 41.41117 2.36092 3485 ft 213 kts 223°
2026-05-06 11:59 41.40040 2.34810 3399 ft 202 kts 224°
2026-05-06 11:59 41.39023 2.33599 3320 ft 188 kts 224°
2026-05-06 12:00 41.38148 2.32418 3227 ft 172 kts 237°
2026-05-06 12:00 41.37622 2.31082 3131 ft 152 kts 247°
2026-05-06 12:00 41.37198 2.29830 3066 ft 145 kts 247°
2026-05-06 12:00 41.36791 2.28631 2938 ft 143 kts 246°
2026-05-06 12:01 41.36392 2.27455 2778 ft 141 kts 246°
2026-05-06 12:01 41.35991 2.26277 2596 ft 141 kts 245°
2026-05-06 12:01 41.35590 2.25097 2424 ft 140 kts 244°
2026-05-06 12:01 41.35192 2.23926 2222 ft 142 kts 244°
2026-05-06 12:02 41.34784 2.22726 2042 ft 143 kts 245°
2026-05-06 12:02 41.34381 2.21541 1861 ft 139 kts 243°
2026-05-06 12:02 41.33988 2.20387 1692 ft 140 kts 243°
2026-05-06 12:02 41.33606 2.19196 1452 ft 142 kts 247°
2026-05-06 12:03 41.33247 2.18004 1228 ft 140 kts 244°
2026-05-06 12:03 41.32821 2.16813 1087 ft 140 kts 241°
2026-05-06 12:03 41.32405 2.15670 898 ft 141 kts 244°
2026-05-06 12:03 41.31994 2.14496 734 ft 141 kts 243°
2026-05-06 12:04 41.31585 2.13320 516 ft 140 kts 243°
2026-05-06 12:04 41.31177 2.12131 326 ft 141 kts 243°
2026-05-06 12:04 41.30773 2.10949 153 ft 141 kts 242°
2026-05-06 12:04 41.30365 2.09766 20 ft 137 kts 243°
2026-05-06 12:05 41.30033 2.08804 18 ft 90 kts 245°
2026-05-06 12:05 41.29841 2.08242 18 ft 45 kts 245°
2026-05-06 12:05 41.29750 2.08004 17 ft 23 kts 234°
2026-05-06 12:05 41.29627 2.07862 18 ft 24 kts 214°
2026-05-06 12:06 41.29489 2.07726 18 ft 23 kts 219°
2026-05-06 12:06 41.29391 2.07712 18 ft 16 kts 160°
2026-05-06 12:06 41.29284 2.07777 18 ft 18 kts 156°
2026-05-06 12:06 41.29206 2.07818 19 ft 11 kts 169°
2026-05-06 12:07 41.29144 2.07831 21 ft 8 kts 158°
2026-05-06 12:07 41.29116 2.07850 18 ft 2 kts 155°
2026-05-06 12:07 41.29110 2.07854 18 ft 0 kts 155°